When you browse on this site, cookies collect data to enhance your experience and personalize the content and advertising you see.
Visit our Privacy Policy to learn more. By continuing to use the site, you agree to this use of cookies and data.
  • In Portugal
  • List of Countries
  • For 7 days
  • Water Temperature
  • Satellite Maps
  • Weather Map
  • Weather Widgets
  • user-avatar
    Login

    Hourly Weather Sierpnica

    Today, 15 December, Saturday

    Time Temperature Precipitation Wind Pressure Humidity
    00:00 -6°C° 0 mm 2 mps 714 mmHg 88%
    01:00 -6°C° 0 mm 2 mps 714 mmHg 89%
    02:00 -6°C° 0 mm 2 mps 714 mmHg 89%
    03:00 -6°C° 0 mm 2 mps 714 mmHg 89%
    04:00 -7°C° 0 mm 3 mps 714 mmHg 90%
    05:00 -6°C° 0 mm 3 mps 714 mmHg 90%
    06:00 -6°C° 0 mm 3 mps 714 mmHg 90%
    07:00 -5°C° 0 mm 2 mps 714 mmHg 91%
    08:00 -6°C° 0 mm 3 mps 715 mmHg 88%
    09:00 -5°C° 0 mm 3 mps 715 mmHg 86%
    10:00 -5°C° 0 mm 3 mps 715 mmHg 83%
    11:00 -5°C° 0 mm 3 mps 715 mmHg 80%
    12:00 -5°C° 0 mm 4 mps 715 mmHg 76%
    13:00 -4°C° 0 mm 4 mps 714 mmHg 73%
    14:00 -5°C° 0 mm 4 mps 714 mmHg 76%
    15:00 -5°C° 0 mm 3 mps 714 mmHg 79%
    16:00 -6°C° 0 mm 3 mps 714 mmHg 82%
    17:00 -6°C° 0 mm 3 mps 713 mmHg 83%
    18:00 -6°C° 0 mm 3 mps 713 mmHg 85%
    19:00 -7°C° 0 mm 3 mps 713 mmHg 86%
    20:00 -7°C° 0 mm 3 mps 713 mmHg 87%
    21:00 -7°C° 0 mm 3 mps 713 mmHg 88%
    22:00 -6°C° 0 mm 2 mps 712 mmHg 89%
    23:00 -6°C° 0 mm 2 mps 712 mmHg 89%

    Tomorrow, 16 December, Sunday

    Time Temperature Precipitation Wind Pressure Humidity
    00:00 -6°C° 0 mm 2 mps 712 mmHg 89%
    01:00 -6°C° 0 mm 2 mps 711 mmHg 89%
    02:00 -6°C° 0 mm 2 mps 711 mmHg 90%
    03:00 -6°C° 0 mm 1 mps 710 mmHg 90%
    04:00 -6°C° 0 mm 1 mps 710 mmHg 90%
    05:00 -6°C° 0 mm 1 mps 710 mmHg 91%
    06:00 -6°C° 0 mm 1 mps 710 mmHg 91%
    07:00 -6°C° 0 mm 1 mps 709 mmHg 91%
    08:00 -6°C° 0 mm 1 mps 709 mmHg 88%
    09:00 -4°C° 0 mm 1 mps 709 mmHg 85%
    10:00 -4°C° 0 mm 1 mps 709 mmHg 82%
    11:00 -3°C° 0 mm 1 mps 709 mmHg 79%
    12:00 -5°C° 0 mm 2 mps 709 mmHg 75%
    13:00 -4°C° 0 mm 2 mps 709 mmHg 71%
    14:00 -5°C° 0 mm 2 mps 709 mmHg 75%
    15:00 -5°C° 0 mm 2 mps 708 mmHg 78%
    16:00 -6°C° 0 mm 2 mps 708 mmHg 82%
    17:00 -6°C° 0 mm 2 mps 708 mmHg 82%
    18:00 -6°C° 0 mm 2 mps 708 mmHg 82%
    19:00 -6°C° 0 mm 2 mps 708 mmHg 82%
    20:00 -6°C° 0 mm 2 mps 708 mmHg 81%
    21:00 -7°C° 0 mm 3 mps 708 mmHg 80%
    22:00 -7°C° 0 mm 3 mps 708 mmHg 79%
    23:00 -6°C° 0 mm 2 mps 709 mmHg 81%

    Day after tomorrow, 17 December, Monday

    Time Temperature Precipitation Wind Pressure Humidity
    00:00 -6°C° 0 mm 2 mps 709 mmHg 82%
    01:00 -6°C° 0 mm 2 mps 709 mmHg 83%
    02:00 -6°C° 0 mm 2 mps 709 mmHg 84%
    03:00 -6°C° 0 mm 2 mps 709 mmHg 85%
    04:00 -5°C° 0 mm 2 mps 709 mmHg 86%
    05:00 -5°C° 0 mm 2 mps 710 mmHg 86%
    06:00 -5°C° 0 mm 2 mps 710 mmHg 87%
    07:00 -5°C° 0 mm 2 mps 710 mmHg 87%
    08:00 -5°C° 0 mm 2 mps 710 mmHg 85%
    09:00 -4°C° 0 mm 2 mps 711 mmHg 84%
    10:00 -3°C° 0 mm 2 mps 712 mmHg 82%
    11:00 -2°C° 0 mm 2 mps 712 mmHg 81%
    12:00 -2°C° 0 mm 2 mps 712 mmHg 80%
    13:00 +1°C° 0 mm 1 mps 712 mmHg 79%
    14:00 0°C° 0 mm 1 mps 712 mmHg 82%
    15:00 -1°C° 0 mm 1 mps 713 mmHg 85%
    16:00 -2°C° 0 mm 1 mps 713 mmHg 88%
    17:00 -2°C° 0 mm 1 mps 713 mmHg 88%
    18:00 -2°C° 0 mm 1 mps 714 mmHg 89%
    19:00 -2°C° 0 mm 1 mps 714 mmHg 89%
    20:00 -2°C° 0 mm 1 mps 715 mmHg 89%
    21:00 -2°C° 0 mm 1 mps 715 mmHg 89%
    22:00 -2°C° 0 mm 1 mps 715 mmHg 89%
    23:00 -2°C° 0 mm 1 mps 715 mmHg 89%

    18 December, Tuesday

    Time Temperature Precipitation Wind Pressure Humidity
    00:00 -2°C° 0 mm 1 mps 715 mmHg 89%
    01:00 -2°C° 0 mm 1 mps 716 mmHg 89%
    02:00 -2°C° 0.1 mm 1 mps 716 mmHg 89%
    03:00 -2°C° 0.1 mm 1 mps 716 mmHg 90%
    04:00 -1°C° 0.1 mm 1 mps 716 mmHg 90%
    05:00 -1°C° 0.2 mm 1 mps 716 mmHg 90%
    06:00 -1°C° 0.2 mm 1 mps 716 mmHg 91%
    07:00 -1°C° 0.2 mm 1 mps 716 mmHg 91%
    08:00 -1°C° 0 mm 1 mps 717 mmHg 90%
    09:00 -1°C° 0 mm 0 mps 717 mmHg 89%
    10:00 -1°C° 0 mm 0 mps 717 mmHg 89%
    11:00 -1°C° 0 mm 0 mps 717 mmHg 88%
    12:00 0°C° 0 mm 0 mps 717 mmHg 87%
    13:00 0°C° 0 mm 0 mps 717 mmHg 87%
    14:00 -1°C° 0 mm 0 mps 717 mmHg 88%
    15:00 -1°C° 0 mm 0 mps 717 mmHg 90%
    16:00 -1°C° 0 mm 1 mps 717 mmHg 92%
    17:00 -2°C° 0 mm 1 mps 717 mmHg 92%
    18:00 -2°C° 0 mm 1 mps 717 mmHg 92%
    19:00 -2°C° 0 mm 1 mps 717 mmHg 92%
    20:00 -2°C° 0 mm 1 mps 716 mmHg 92%
    21:00 -2°C° 0 mm 1 mps 716 mmHg 91%
    22:00 -2°C° 0 mm 1 mps 716 mmHg 91%
    23:00 -2°C° 0 mm 1 mps 716 mmHg 91%

    19 December, Wednesday

    Time Temperature Precipitation Wind Pressure Humidity
    00:00 -3°C° 0 mm 1 mps 716 mmHg 90%
    01:00 -3°C° 0 mm 1 mps 716 mmHg 90%
    02:00 -5°C° 0 mm 2 mps 715 mmHg 89%
    03:00 -5°C° 0 mm 2 mps 715 mmHg 89%
    04:00 -5°C° 0 mm 2 mps 715 mmHg 88%
    05:00 -5°C° 0 mm 2 mps 715 mmHg 87%
    06:00 -5°C° 0 mm 2 mps 715 mmHg 86%
    07:00 -5°C° 0 mm 2 mps 715 mmHg 85%
    08:00 -4°C° 0 mm 2 mps 715 mmHg 82%
    09:00 -3°C° 0 mm 2 mps 715 mmHg 80%
    10:00 -3°C° 0 mm 2 mps 715 mmHg 77%
    11:00 -2°C° 0 mm 3 mps 715 mmHg 76%
    12:00 -1°C° 0 mm 3 mps 714 mmHg 75%
    13:00 -1°C° 0 mm 3 mps 714 mmHg 74%
    14:00 -2°C° 0 mm 3 mps 714 mmHg 77%
    15:00 -2°C° 0 mm 3 mps 714 mmHg 81%
    16:00 -3°C° 0 mm 2 mps 713 mmHg 84%
    17:00 -4°C° 0 mm 3 mps 713 mmHg 84%
    18:00 -5°C° 0 mm 3 mps 713 mmHg 83%
    19:00 -5°C° 0 mm 3 mps 713 mmHg 82%
    20:00 -5°C° 0 mm 3 mps 713 mmHg 82%
    21:00 -5°C° 0 mm 3 mps 713 mmHg 82%
    22:00 -5°C° 0 mm 4 mps 712 mmHg 82%
    23:00 -5°C° 0 mm 4 mps 712 mmHg 81%

    20 December, Thursday

    Time Temperature Precipitation Wind Pressure Humidity
    00:00 -5°C° 0 mm 4 mps 712 mmHg 80%
    01:00 -5°C° 0 mm 4 mps 712 mmHg 79%
    02:00 -5°C° 0 mm 4 mps 712 mmHg 78%
    03:00 -5°C° 0 mm 4 mps 712 mmHg 78%
    04:00 -5°C° 0 mm 3 mps 711 mmHg 77%
    05:00 -5°C° 0 mm 4 mps 712 mmHg 77%
    06:00 -5°C° 0 mm 4 mps 712 mmHg 77%
    07:00 -5°C° 0 mm 4 mps 712 mmHg 77%
    08:00 -5°C° 0 mm 4 mps 712 mmHg 77%
    09:00 -5°C° 0 mm 4 mps 712 mmHg 77%
    10:00 -5°C° 0 mm 4 mps 712 mmHg 77%
    11:00 -5°C° 0 mm 4 mps 712 mmHg 76%
    12:00 -4°C° 0 mm 4 mps 712 mmHg 76%
    13:00 -4°C° 0 mm 4 mps 712 mmHg 75%
    14:00 -4°C° 0 mm 4 mps 712 mmHg 77%
    15:00 -5°C° 0 mm 3 mps 712 mmHg 79%
    16:00 -5°C° 0 mm 3 mps 712 mmHg 81%
    17:00 -5°C° 0 mm 3 mps 712 mmHg 81%
    18:00 -5°C° 0 mm 3 mps 712 mmHg 82%
    19:00 -5°C° 0 mm 3 mps 713 mmHg 83%
    20:00 -5°C° 0 mm 3 mps 713 mmHg 84%
    21:00 -5°C° 0 mm 3 mps 713 mmHg 85%
    22:00 -4°C° 0 mm 2 mps 713 mmHg 86%
    23:00 -4°C° 0 mm 2 mps 714 mmHg 87%
    Show more